Time,TemperatureF,DewpointF,PressureIn,WindDirection,WindDirectionDegrees,WindSpeedMPH,WindSpeedGustMPH,Humidity,HourlyPrecipIn,Conditions,Clouds,dailyrainin,SoftwareType,DateUTC
2013-12-09 00:02:00,-9.0,-12.0,-100.00,NNE,17,0.0,2.0,85,0.00,,,0.01,,2013-12-09 07:02:00,
2013-12-09 00:22:00,-10.0,-13.0,-100.00,WNW,284,2.0,5.0,85,0.00,,,0.01,,2013-12-09 07:22:00,
2013-12-09 00:32:00,-10.0,-13.0,-100.00,WNW,284,2.0,5.0,85,0.00,,,0.01,,2013-12-09 07:32:00,
2013-12-09 00:52:00,-10.0,-14.0,-100.00,SE,130,4.0,6.0,85,0.00,,,0.01,,2013-12-09 07:52:00,
2013-12-09 01:02:00,-10.0,-14.0,-100.00,SE,130,4.0,6.0,85,0.00,,,0.01,,2013-12-09 08:02:00,
2013-12-09 01:22:00,-10.0,-13.0,-100.00,SSE,147,2.0,4.0,85,0.00,,,0.01,,2013-12-09 08:22:00,
2013-12-09 01:32:00,-10.0,-13.0,-100.00,SSE,147,2.0,4.0,85,0.00,,,0.01,,2013-12-09 08:32:00,
2013-12-09 01:52:00,-10.0,-13.0,-100.00,SE,133,4.0,5.0,85,0.00,,,0.01,,2013-12-09 08:52:00,
2013-12-09 02:02:00,-10.0,-13.0,-100.00,SE,133,4.0,5.0,85,0.00,,,0.01,,2013-12-09 09:02:00,
2013-12-09 02:22:00,-10.0,-13.0,-100.00,SE,141,4.0,5.0,85,0.00,,,0.01,,2013-12-09 09:22:00,
2013-12-09 02:33:00,-10.0,-13.0,-100.00,SE,141,4.0,5.0,85,0.00,,,0.01,,2013-12-09 09:33:00,
2013-12-09 02:54:00,-10.0,-13.0,-100.00,SE,130,5.0,7.0,85,0.00,,,0.01,,2013-12-09 09:54:00,
2013-12-09 03:04:00,-10.0,-13.0,-100.00,SE,130,5.0,7.0,85,0.00,,,0.01,,2013-12-09 10:04:00,
2013-12-09 03:23:00,-10.0,-13.0,-100.00,NNW,343,2.0,5.0,85,0.00,,,0.01,,2013-12-09 10:23:00,
2013-12-09 03:33:00,-10.0,-13.0,-100.00,NNW,343,2.0,5.0,85,0.00,,,0.01,,2013-12-09 10:33:00,
2013-12-09 03:53:00,-9.0,-13.0,-100.00,SE,127,5.0,7.0,85,0.00,,,0.01,,2013-12-09 10:53:00,
2013-12-09 04:02:00,-9.0,-13.0,-100.00,SE,127,5.0,7.0,85,0.00,,,0.01,,2013-12-09 11:02:00,
2013-12-09 04:22:00,-9.0,-12.0,-100.00,ESE,102,4.0,6.0,86,0.00,,,0.01,,2013-12-09 11:22:00,
2013-12-09 04:33:00,-9.0,-12.0,-100.00,ESE,102,4.0,6.0,86,0.00,,,0.01,,2013-12-09 11:33:00,
2013-12-09 04:53:00,-8.0,-11.0,-100.00,ESE,113,6.0,7.0,86,0.00,,,0.01,,2013-12-09 11:53:00,
2013-12-09 05:02:00,-8.0,-11.0,-100.00,ESE,113,6.0,7.0,86,0.00,,,0.01,,2013-12-09 12:02:00,
2013-12-09 05:22:00,-8.0,-11.0,-100.00,ESE,119,7.0,8.0,86,0.00,,,0.01,,2013-12-09 12:22:00,
2013-12-09 05:32:00,-8.0,-11.0,-100.00,ESE,119,7.0,8.0,86,0.00,,,0.01,,2013-12-09 12:32:00,
2013-12-09 05:52:00,-8.0,-10.0,-100.00,SE,127,6.0,6.0,86,0.00,,,0.01,,2013-12-09 12:52:00,
2013-12-09 06:02:00,-8.0,-10.0,-100.00,SE,127,6.0,6.0,86,0.00,,,0.01,,2013-12-09 13:02:00,
2013-12-09 06:22:00,-8.0,-11.0,-100.00,ESE,121,7.0,9.0,86,0.00,,,0.01,,2013-12-09 13:22:00,
2013-12-09 06:32:00,-8.0,-11.0,-100.00,ESE,121,7.0,9.0,86,0.00,,,0.01,,2013-12-09 13:32:00,
2013-12-09 06:52:00,-8.0,-11.0,-100.00,SE,130,6.0,8.0,86,0.00,,,0.01,,2013-12-09 13:52:00,
2013-12-09 07:02:00,-8.0,-11.0,-100.00,SE,130,6.0,8.0,86,0.00,,,0.01,,2013-12-09 14:02:00,
2013-12-09 07:22:00,-8.0,-11.0,-100.00,SE,128,6.0,9.0,86,0.00,,,0.02,,2013-12-09 14:22:00,
2013-12-09 07:32:00,-8.0,-11.0,-100.00,SE,128,6.0,9.0,86,0.00,,,0.02,,2013-12-09 14:32:00,
2013-12-09 07:52:00,-8.0,-11.0,-100.00,SE,128,6.0,9.0,86,0.00,,,0.02,,2013-12-09 14:52:00,
2013-12-09 08:02:00,-8.0,-11.0,-100.00,SE,128,6.0,9.0,86,0.00,,,0.02,,2013-12-09 15:02:00,
2013-12-09 08:21:00,-8.0,-11.0,-100.00,SE,127,6.0,8.0,86,0.00,,,0.02,,2013-12-09 15:21:00,
2013-12-09 08:33:00,-8.0,-11.0,-100.00,SE,127,6.0,8.0,86,0.00,,,0.02,,2013-12-09 15:33:00,
2013-12-09 08:53:00,-8.0,-11.0,-100.00,SE,126,7.0,10.0,86,0.00,,,0.02,,2013-12-09 15:53:00,
2013-12-09 09:03:00,-8.0,-11.0,-100.00,SE,126,7.0,10.0,86,0.00,,,0.02,,2013-12-09 16:03:00,
2013-12-09 09:23:00,-7.0,-10.0,-100.00,SE,138,6.0,8.0,87,0.00,,,0.02,,2013-12-09 16:23:00,
2013-12-09 09:33:00,-7.0,-10.0,-100.00,SE,138,6.0,8.0,87,0.00,,,0.02,,2013-12-09 16:33:00,
2013-12-09 09:53:00,-6.0,-9.0,-100.00,SE,145,6.0,7.0,87,0.00,,,0.03,,2013-12-09 16:53:00,
2013-12-09 10:02:00,-6.0,-9.0,-100.00,SE,145,6.0,7.0,87,0.00,,,0.03,,2013-12-09 17:02:00,
2013-12-09 10:22:00,-5.0,-8.0,-100.00,SSE,147,6.0,8.0,88,0.00,,,0.03,,2013-12-09 17:22:00,
2013-12-09 10:33:00,-5.0,-8.0,-100.00,SSE,147,6.0,8.0,88,0.00,,,0.03,,2013-12-09 17:33:00,
2013-12-09 10:53:00,-4.0,-7.0,-100.00,SSE,147,7.0,10.0,88,0.00,,,0.03,,2013-12-09 17:53:00,
2013-12-09 11:02:00,-4.0,-7.0,-100.00,SSE,147,7.0,10.0,88,0.00,,,0.03,,2013-12-09 18:02:00,
2013-12-09 11:22:00,-3.0,-5.0,-100.00,SSE,157,6.0,11.0,89,0.00,,,0.03,,2013-12-09 18:22:00,
2013-12-09 11:32:00,-3.0,-5.0,-100.00,SSE,157,6.0,11.0,89,0.00,,,0.03,,2013-12-09 18:32:00,
2013-12-09 11:52:00,-1.0,-4.0,-100.00,SSE,154,6.0,9.0,90,0.00,,,0.04,,2013-12-09 18:52:00,
2013-12-09 12:02:00,-1.0,-4.0,-100.00,SSE,154,6.0,9.0,90,0.00,,,0.04,,2013-12-09 19:02:00,
2013-12-09 13:22:00,1.0,-1.0,-100.00,SSE,157,6.0,10.0,91,0.00,,,0.04,,2013-12-09 20:22:00,
2013-12-09 13:32:00,1.0,-1.0,-100.00,SSE,157,6.0,10.0,91,0.00,,,0.04,,2013-12-09 20:32:00,
2013-12-09 13:53:00,3.0,1.0,-100.00,SSE,158,6.0,9.0,92,0.00,,,0.05,,2013-12-09 20:53:00,
2013-12-09 14:02:00,3.0,1.0,-100.00,SSE,158,6.0,9.0,92,0.00,,,0.05,,2013-12-09 21:02:00,
2013-12-09 14:22:00,4.0,2.0,-100.00,SSE,168,5.0,6.0,92,0.01,,,0.06,,2013-12-09 21:22:00,
2013-12-09 14:33:00,4.0,2.0,-100.00,SSE,168,5.0,6.0,92,0.01,,,0.06,,2013-12-09 21:33:00,
2013-12-09 14:53:00,4.0,2.0,-100.00,SSE,157,6.0,9.0,92,0.00,,,0.06,,2013-12-09 21:53:00,
2013-12-09 15:03:00,4.0,2.0,-100.00,SSE,157,6.0,9.0,92,0.00,,,0.06,,2013-12-09 22:03:00,
2013-12-09 15:22:00,4.0,3.0,-100.00,SSE,165,6.0,9.0,93,0.01,,,0.07,,2013-12-09 22:22:00,
2013-12-09 15:33:00,4.0,3.0,-100.00,SSE,165,6.0,9.0,93,0.01,,,0.07,,2013-12-09 22:33:00,
2013-12-09 15:53:00,4.0,2.0,-100.00,SSE,157,5.0,8.0,92,0.01,,,0.09,,2013-12-09 22:53:00,
2013-12-09 16:02:00,4.0,2.0,-100.00,SSE,157,5.0,8.0,92,0.01,,,0.09,,2013-12-09 23:02:00,
2013-12-09 16:53:00,4.0,2.0,-100.00,SE,133,5.0,6.0,92,0.01,,,0.11,,2013-12-09 23:53:00,
2013-12-09 17:02:00,4.0,2.0,-100.00,SE,133,5.0,6.0,92,0.01,,,0.11,,2013-12-10 00:02:00,
2013-12-09 19:52:00,2.0,0.0,-100.00,SE,133,5.0,7.0,91,0.01,,,0.19,,2013-12-10 02:52:00,
2013-12-09 20:02:00,2.0,0.0,-100.00,SE,133,5.0,7.0,91,0.01,,,0.19,,2013-12-10 03:02:00,
2013-12-09 20:53:00,2.0,0.0,-100.00,SE,140,6.0,9.0,91,0.01,,,0.22,,2013-12-10 03:53:00,
2013-12-09 21:03:00,2.0,0.0,-100.00,SE,140,6.0,9.0,91,0.01,,,0.22,,2013-12-10 04:03:00,
2013-12-09 21:53:00,2.0,0.0,-100.00,SSE,147,4.0,6.0,91,0.02,,,0.29,,2013-12-10 04:53:00,
2013-12-09 22:02:00,2.0,0.0,-100.00,SSE,147,4.0,6.0,91,0.02,,,0.29,,2013-12-10 05:02:00,
2013-12-09 22:22:00,2.0,0.0,-100.00,SE,133,6.0,7.0,91,0.00,,,0.31,,2013-12-10 05:22:00,
2013-12-09 22:33:00,2.0,0.0,-100.00,SE,133,6.0,7.0,91,0.00,,,0.31,,2013-12-10 05:33:00,
2013-12-09 22:53:00,2.0,0.0,-100.00,SE,124,6.0,8.0,91,0.00,,,0.32,,2013-12-10 05:53:00,
2013-12-09 23:02:00,2.0,0.0,-100.00,SE,124,6.0,8.0,91,0.00,,,0.32,,2013-12-10 06:02:00,
2013-12-09 23:22:00,2.0,0.0,-100.00,SE,128,6.0,8.0,92,0.00,,,0.33,,2013-12-10 06:22:00,
2013-12-09 23:32:00,2.0,0.0,-100.00,SE,128,6.0,8.0,92,0.00,,,0.33,,2013-12-10 06:32:00,